Wind_Speed
18 20 24 29 27 24 28 36 25 27 27 24 28 32 24 19 15 15 13 14 20 19 15 13 11 11 13 8 7 7 7 7 6 11 14 19 24 26 25 26 28 32 33 34
18 18 18 28 30 32 39 38 37 32 37 29 16 17 26 27 25 22 32 16 22 21 21 18 16 14 15 16 12 12 11 11 13 14 17 18 19 23 25 28 30 31 32 31
6 4 11 19 33 24 34 42 37 30 32 27 26 24 24 24 26 26 22 26 22 22 22 25 23 19 18 21 20 19 19 21 21 21 23 26 26 26 25 26 28 29 30 32
10 10 8 16 16 17 15 30 42 39 30 21 23 18 21 29 32 28 26 28 29 29 26 25 25 26 21 23 24 24 23 25 27 28 28 28 31 29 29 28 30 31 31 32
8 11 21 24 9 10 18 21 25 37 37 34 30 29 28 24 21 28 28 27 26 28 30 29 27 25 24 26 26 27 26 28 31 30 30 31 32 30 31 31 31 31 31 30
13 6 6 9 9 16 24 26 8 12 20 28 32 39 43 26 22 22 30 29 31 29 25 29 29 27 26 27 25 24 27 27 27 27 28 29 31 30 30 30 31 32 33 34
27 15 12 15 15 14 13 12 8 6 8 18 23 30 32 36 26 22 24 30 29 26 29 30 32 29 26 23 23 21 19 17 18 20 24 27 28 29 30 31 33 34 33 34
20 15 14 6 7 8 16 16 9 5 5 4 20 18 16 19 26 24 15 18 24 26 28 29 27 24 20 19 16 17 16 16 18 20 22 24 26 27 28 29 30 30 32 33
8 17 15 5 14 10 10 21 12 11 4 3 10 15 23 20 24 10 11 19 23 22 23 24 20 17 16 17 18 16 15 16 18 21 22 23 25 26 28 29 30 30 30 30
21 13 9 2 20 11 9 12 15 16 14 16 10 11 21 28 23 14 13 20 17 17 18 23 24 17 19 18 18 16 16 19 20 20 21 23 25 26 28 29 29 28 28 27
23 24 26 24 11 6 3 9 12 15 15 17 14 13 10 21 27 31 20 18 20 21 24 20 18 21 19 16 17 17 18 19 20 21 24 25 26 26 27 26 25 25 26 27
27 21 24 24 18 18 14 9 8 9 15 19 19 20 16 11 15 18 24 24 25 20 19 20 21 21 14 14 15 17 18 19 21 23 23 23 22 22 21 21 21 24 27 29
22 20 23 25 22 23 19 15 12 18 15 13 17 17 16 22 19 21 22 22 22 21 21 27 24 19 14 14 15 15 17 21 22 21 20 20 19 19 20 21 22 24 26 28
19 21 25 24 24 23 22 17 9 17 15 13 18 15 13 11 15 18 22 26 23 28 23 24 23 16 12 11 14 19 19 18 20 21 21 19 18 19 20 23 25 28 31 34
15 19 24 24 22 21 20 16 10 11 8 12 6 15 12 5 5 3 15 18 16 22 17 13 9 9 11 15 18 15 17 19 20 19 17 17 19 21 23 26 30 32 36 39
13 18 23 25 24 19 17 18 14 11 7 8 5 6 2 10 13 9 7 10 4 7 9 9 8 12 16 14 14 16 18 18 16 16 18 20 23 25 28 30 33 36 39 41
21 20 20 18 25 17 12 16 16 17 12 11 12 10 9 10 14 17 9 6 9 11 7 8 11 11 12 13 15 16 15 15 17 19 22 24 26 28 31 34 36 37 39 41
28 26 21 17 20 19 15 14 13 15 11 10 11 12 11 11 13 15 17 15 13 6 8 11 10 10 12 13 13 13 15 17 20 22 24 26 29 31 32 34 35 37 39 39
28 26 23 23 23 22 20 16 14 10 11 12 15 16 14 12 13 14 11 6 7 10 9 8 8 9 9 10 13 15 17 19 22 24 27 28 30 31 32 34 35 36 36 36
26 25 24 25 25 25 25 21 21 18 16 17 17 17 15 14 14 15 12 7 9 8 6 6 5 7 10 12 15 17 20 22 24 25 26 28 29 31 33 34 34 33 33 32
22 24 23 25 25 27 26 27 24 21 18 19 21 20 22 21 21 15 8 6 6 5 3 4 7 10 12 14 16 19 20 22 23 25 27 29 31 32 32 31 31 31 30 29
14 19 22 20 20 22 23 24 23 20 18 22 24 19 16 14 12 8 6 4 3 2 4 7 9 11 13 15 17 19 21 23 24 26 28 29 29 29 29 29 29 28 27 27
11 11 20 19 16 20 21 23 25 24 26 25 20 18 15 11 9 8 6 2 2 4 6 8 10 12 14 17 19 20 22 24 26 27 27 27 28 28 28 26 25 25 26 26
8 12 13 14 19 23 26 27 23 21 20 20 18 17 14 11 8 5 2 2 4 5 7 9 11 14 16 18 19 21 23 24 25 25 25 26 27 26 25 24 24 25 27 28
12 13 14 12 18 23 22 23 23 21 18 16 15 15 11 7 5 2 2 3 4 6 8 11 13 15 17 19 21 22 22 22 23 24 25 26 25 23 23 24 26 27 27 26
8 13 16 17 15 16 17 20 19 21 18 15 12 9 6 4 3 2 2 4 6 9 11 13 15 16 18 19 20 20 21 22 23 24 24 24 23 23 24 26 26 25 25 26
15 16 18 20 23 24 23 20 16 14 13 10 7 5 4 2 0 2 4 7 9 10 12 13 15 16 18 18 19 20 20 21 23 23 23 23 22 23 24 24 24 24 24 25
Wind_Direction
261 267 258 271 280 274 256 249 253 256 254 259 248 245 246 263 245 232 225 233 216 226 231 228 230 236 234 216 199 198 206 221 232 224 230 246 250 252 252 251 254 255 260 264
274 270 267 263 269 284 267 259 256 267 257 258 248 249 243 249 247 250 245 240 238 234 235 240 242 241 241 234 228 229 235 236 235 238 242 248 250 246 248 251 255 258 259 261
261 235 237 254 254 293 273 250 250 249 252 240 245 253 250 245 245 247 241 241 237 233 235 238 233 235 237 235 234 235 242 246 244 244 248 249 247 250 255 260 260 259 262 267
288 291 226 239 220 289 295 258 250 250 247 248 235 234 233 238 247 245 239 235 231 236 241 236 237 231 234 231 233 241 246 250 253 251 252 254 254 257 261 266 263 269 271 273
239 272 278 269 263 277 342 263 255 257 256 256 250 245 244 242 242 231 232 235 238 239 233 231 236 227 230 236 240 241 246 256 255 254 256 257 259 265 268 267 269 273 277 279
244 238 249 268 253 297 320 296 269 253 252 249 248 245 244 234 244 239 237 238 245 241 227 223 221 226 234 241 246 254 264 269 269 265 260 259 265 270 275 276 279 280 279 276
235 252 282 295 270 270 290 260 339 352 326 249 237 244 247 239 255 230 219 237 227 217 216 217 221 229 234 242 254 263 266 266 264 264 261 263 267 270 272 273 273 273 273 274
230 244 247 301 338 4 333 275 324 4 352 303 220 230 222 223 219 224 233 219 221 214 217 218 221 226 232 243 246 249 257 266 270 270 269 269 271 273 274 274 275 276 278 280
229 237 254 336 299 336 334 311 344 308 293 226 221 213 220 191 199 202 231 206 193 200 209 219 226 241 253 256 250 254 259 266 270 268 270 272 274 274 275 275 275 275 279 283
271 280 231 240 321 315 346 319 331 324 281 232 203 225 236 210 214 212 225 206 213 224 232 233 220 216 237 236 247 248 267 273 270 273 276 278 278 279 279 279 279 281 284 286
269 269 266 275 277 317 293 323 308 328 314 284 248 217 229 220 219 222 217 224 227 221 220 210 220 231 226 228 242 264 273 274 282 289 290 289 287 286 285 285 285 285 285 285
269 278 271 261 281 320 330 314 300 307 309 281 260 244 207 174 207 214 213 212 210 225 231 231 224 226 221 237 255 268 281 288 293 294 294 292 291 290 289 290 290 288 287 289
274 276 265 259 277 297 317 322 301 316 326 271 241 245 259 226 196 193 203 215 218 215 225 234 237 232 236 251 270 285 295 298 298 299 301 301 299 299 299 299 299 299 299 299
277 269 261 255 274 282 298 295 264 310 315 300 224 233 255 270 248 219 220 215 217 232 236 232 235 239 248 279 293 302 300 301 308 311 309 307 307 309 310 311 311 309 307 305
269 269 266 259 265 273 285 278 253 297 310 329 297 229 231 180 45 259 257 247 267 249 255 231 232 261 289 304 305 301 303 307 309 308 308 310 312 313 313 312 311 311 311 312
259 267 273 258 260 256 271 268 239 246 298 294 22 90 197 235 249 262 285 276 253 224 203 222 259 293 301 294 296 300 305 307 307 310 313 315 315 315 315 315 315 315 314 313
272 274 265 246 250 235 241 251 226 235 256 270 258 255 255 251 245 252 261 231 230 215 226 266 296 290 286 293 300 304 305 311 314 314 315 317 318 318 318 317 317 315 314 313
266 263 247 233 225 221 229 241 248 247 257 243 248 257 254 246 242 240 241 217 210 215 280 296 286 289 296 299 302 307 310 312 315 317 318 320 321 321 320 319 319 319 320 321
256 244 241 230 225 223 225 244 247 242 238 245 261 256 249 233 225 228 200 253 294 276 275 277 284 290 293 300 306 310 314 317 320 323 324 323 323 323 324 325 325 326 328 330
244 242 234 230 226 227 234 242 243 239 245 252 257 248 235 228 211 207 214 237 263 252 267 280 282 294 303 309 314 319 321 324 325 324 325 327 328 329 329 330 332 334 335 336
239 245 235 223 239 229 224 233 236 239 240 235 236 238 210 208 193 193 214 252 266 256 259 286 306 310 313 317 320 323 325 326 328 331 332 332 333 334 334 335 336 336 337 338
232 230 227 242 242 230 226 230 233 232 229 239 207 195 189 194 196 215 233 216 211 249 305 305 307 314 321 325 326 328 331 333 334 335 336 336 336 336 336 336 337 338 338 339
240 261 247 234 220 211 212 215 212 210 205 187 187 185 181 198 196 176 174 194 298 300 302 312 320 325 328 330 332 334 335 336 337 338 337 336 336 336 337 338 339 339 339 339
253 243 232 215 208 196 200 191 181 175 172 166 179 170 160 155 159 153 154 265 284 303 317 324 328 331 333 333 336 337 338 338 337 336 336 337 338 338 339 339 339 339 338 337
241 236 201 161 171 163 166 167 167 165 169 172 156 154 157 139 148 182 236 282 309 320 325 331 334 335 336 337 338 337 336 334 335 337 338 339 340 339 339 339 339 338 336 336
173 165 154 155 156 153 152 144 153 147 145 149 144 129 135 168 183 221 308 318 323 331 335 336 337 337 337 336 335 333 334 336 337 339 341 341 339 338 339 339 338 337 337 336
142 145 150 148 144 139 138 139 146 147 131 121 141 157 159 157 230 328 324 328 333 335 337 337 337 335 334 333 333 334 335 336 340 341 340 337 337 338 338 338 337 337 337 337
Height
3008 3010 3011 3009 3008 3008 3008 3004 3007 3004 3006 3011 3015 3017 3019 3023 3025 3027 3028 3031 3033 3035 3037 3039 3041 3042 3044 3045 3046 3048 3049 3050 3052 3053 3055 3057 3058 3059 3060 3060 3061 3061 3061 3061
3001 3003 3003 3001 2999 3001 2997 2998 2996 2999 2999 3006 3009 3010 3012 3015 3019 3021 3023 3026 3028 3030 3031 3035 3037 3039 3040 3041 3043 3044 3045 3047 3048 3049 3051 3052 3053 3053 3053 3054 3053 3052 3052 3052
2996 2997 2998 2997 2993 2993 2988 2988 2990 2990 2992 3000 3002 3004 3007 3009 3010 3012 3016 3019 3022 3025 3027 3029 3032 3034 3035 3035 3037 3039 3040 3041 3042 3043 3044 3044 3045 3046 3046 3046 3045 3045 3044 3043
2994 2994 2991 2980 2985 2987 2980 2978 2983 2985 2989 2992 2995 2997 2998 3001 3003 3006 3009 3011 3014 3017 3019 3021 3024 3027 3029 3031 3032 3033 3034 3035 3036 3036 3037 3037 3037 3038 3038 3038 3037 3036 3034 3033
2992 2989 2981 2975 2978 2979 2977 2971 2976 2977 2982 2985 2989 2990 2990 2994 2996 2998 3001 3003 3005 3008 3010 3015 3017 3019 3022 3024 3026 3027 3028 3028 3028 3028 3029 3029 3029 3029 3029 3028 3027 3026 3024 3022
2989 2985 2977 2972 2974 2974 2978 2972 2970 2972 2972 2974 2979 2979 2979 2987 2988 2989 2992 2995 2997 2999 3002 3007 3010 3012 3015 3017 3019 3019 3019 3019 3019 3019 3020 3020 3020 3020 3019 3018 3017 3015 3014 3012
2982 2981 2974 2971 2971 2969 2973 2974 2966 2966 2964 2963 2967 2970 2974 2978 2981 2982 2983 2986 2990 2992 2995 2999 3002 3005 3008 3010 3011 3012 3012 3012 3012 3012 3012 3012 3011 3010 3010 3009 3007 3005 3004 3002
2978 2978 2975 2968 2970 2968 2968 2961 2963 2963 2961 2960 2962 2964 2966 2969 2973 2975 2977 2979 2984 2986 2989 2992 2996 2999 3001 3002 3004 3005 3004 3004 3005 3004 3004 3003 3002 3001 3000 2999 2997 2996 2994 2992
2966 2963 2964 2961 2966 2965 2964 2960 2959 2959 2957 2957 2959 2960 2961 2962 2967 2971 2975 2976 2979 2982 2984 2986 2990 2996 2997 2998 2999 2999 2999 2999 2998 2996 2996 2995 2994 2992 2991 2989 2987 2986 2983 2981
2965 2963 2963 2960 2962 2961 2960 2959 2958 2956 2954 2954 2955 2956 2956 2958 2964 2968 2972 2976 2978 2980 2981 2983 2986 2987 2990 2991 2992 2993 2993 2993 2992 2991 2989 2988 2987 2985 2982 2980 2979 2977 2975 2973
2956 2957 2959 2960 2959 2956 2956 2956 2957 2954 2954 2953 2953 2954 2954 2956 2958 2963 2967 2971 2974 2977 2977 2977 2979 2982 2983 2984 2986 2986 2987 2986 2986 2984 2982 2981 2979 2977 2974 2972 2971 2969 2967 2965
2952 2954 2954 2952 2955 2954 2953 2953 2953 2953 2951 2950 2950 2950 2952 2953 2956 2959 2963 2967 2969 2969 2971 2973 2975 2977 2977 2979 2980 2980 2980 2979 2979 2977 2975 2973 2971 2969 2967 2965 2963 2961 2959 2957
2948 2949 2948 2948 2950 2951 2951 2951 2950 2950 2947 2945 2947 2947 2947 2948 2951 2954 2957 2961 2962 2962 2965 2967 2969 2971 2971 2972 2973 2974 2973 2972 2971 2970 2967 2966 2963 2961 2959 2957 2955 2952 2950 2947
2945 2943 2942 2944 2945 2946 2948 2948 2947 2947 2945 2942 2942 2944 2945 2945 2944 2946 2949 2952 2955 2957 2959 2960 2962 2963 2964 2966 2966 2967 2967 2965 2964 2961 2959 2957 2955 2953 2951 2949 2946 2943 2940 2937
2939 2938 2937 2939 2941 2943 2943 2944 2943 2943 2942 2941 2938 2940 2943 2945 2943 2944 2945 2947 2949 2950 2952 2954 2955 2959 2961 2960 2960 2960 2960 2958 2957 2954 2952 2951 2949 2947 2945 2942 2939 2935 2931 2926
2932 2931 2931 2932 2935 2938 2939 2940 2939 2941 2939 2939 2938 2938 2940 2940 2942 2944 2944 2945 2946 2947 2950 2953 2954 2955 2956 2956 2954 2954 2953 2952 2951 2949 2947 2945 2943 2940 2937 2934 2930 2926 2922 2917
2926 2927 2927 2927 2931 2933 2934 2935 2935 2937 2937 2937 2937 2937 2937 2937 2940 2941 2942 2943 2944 2947 2948 2950 2950 2950 2950 2950 2950 2949 2948 2947 2946 2944 2942 2939 2937 2933 2929 2925 2921 2917 2913 2908
2918 2920 2921 2922 2924 2926 2928 2930 2931 2932 2933 2932 2932 2933 2934 2935 2937 2938 2938 2938 2941 2943 2945 2945 2945 2945 2945 2946 2945 2945 2944 2943 2941 2938 2936 2932 2929 2925 2921 2918 2914 2908 2902 2896
2909 2912 2914 2915 2918 2920 2923 2926 2926 2928 2929 2929 2930 2931 2932 2933 2934 2936 2936 2938 2938 2940 2941 2940 2940 2942 2942 2942 2942 2941 2940 2937 2935 2931 2929 2926 2922 2918 2913 2908 2903 2897 2891 2885
2902 2904 2906 2907 2910 2913 2916 2919 2921 2922 2924 2926 2927 2928 2928 2930 2932 2933 2934 2935 2936 2936 2936 2937 2938 2938 2939 2938 2937 2935 2933 2931 2929 2926 2923 2919 2914 2909 2904 2899 2894 2888 2883 2878
2895 2897 2899 2902 2904 2905 2908 2914 2916 2918 2919 2920 2922 2924 2923 2925 2926 2928 2930 2931 2932 2933 2933 2934 2935 2935 2934 2933 2932 2931 2928 2926 2922 2918 2914 2910 2906 2901 2896 2891 2887 2882 2877 2872
2889 2891 2893 2897 2898 2900 2904 2907 2911 2913 2915 2916 2916 2918 2921 2923 2925 2926 2928 2930 2930 2931 2932 2932 2932 2931 2930 2929 2927 2925 2922 2919 2916 2911 2908 2903 2899 2895 2891 2886 2881 2877 2873 2868
2886 2887 2889 2892 2893 2896 2899 2902 2904 2907 2908 2911 2914 2916 2918 2921 2923 2924 2926 2928 2929 2929 2929 2929 2928 2927 2926 2924 2922 2919 2916 2913 2909 2905 2902 2899 2895 2890 2885 2881 2877 2873 2868 2863
2882 2883 2883 2885 2888 2891 2893 2895 2900 2904 2907 2909 2912 2914 2918 2920 2922 2923 2925 2926 2926 2926 2926 2925 2924 2922 2921 2918 2916 2913 2910 2907 2904 2902 2898 2894 2889 2885 2881 2876 2872 2868 2863 2859
2880 2881 2883 2884 2886 2889 2893 2896 2899 2902 2907 2910 2912 2915 2917 2920 2923 2923 2923 2923 2923 2923 2923 2921 2919 2917 2915 2913 2910 2908 2906 2904 2900 2896 2892 2888 2883 2880 2876 2872 2867 2863 2859 2855
2880 2882 2884 2888 2892 2895 2898 2901 2905 2907 2909 2912 2913 2915 2918 2920 2921 2921 2920 2920 2920 2919 2918 2917 2915 2913 2911 2909 2907 2905 2902 2898 2894 2890 2886 2882 2879 2875 2871 2867 2863 2859 2855 2851
2882 2886 2889 2892 2896 2899 2903 2905 2908 2909 2910 2913 2916 2917 2917 2918 2918 2918 2918 2918 2917 2916 2914 2913 2911 2909 2907 2905 2903 2899 2896 2892 2888 2885 2881 2878 2875 2871 2867 2864 2860 2856 2852 2847